Location: Bacharowice
(49.9333°N, 19.5833°E)
Time: 03:49:27
(UTC+00:00)

USA 215 - Pass Details

Date: 11 May 2021
Orbit: 1100 x 1107 km, 123.0° (Epoch: 14 June)

Event Time Altitude Azimuth Distance (km) Brightness Sun altitude
Exits shadow 23:13:58 28° 150° (SSE) 1,914 4.1 -21.5°
Maximum altitude 23:17:27 60° 220° (SW) 1,242 3.2 -21.4°
Drops below altitude 10° 23:23:55 10° 300° (WNW) 2,964 5.7 -21.2°
Sets 23:26:27 0° 304° (NW) 3,925 6.4 -21.1°
